Stations météo

réclame
Mon MeteoGroup
Noervenich/Flugplatz, Allemagne (10502): Température de l'air & dewpoint: 13.07.2018 19:00:00 - 19.07.2018 19:00:00 (CEST)Noervenich/Flugplatz, Allemagne (10502): Vitesse du vent & gusts: 13.07.2018 19:00:00 - 19.07.2018 19:00:00 (CEST)Noervenich/Flugplatz, Allemagne (10502): Direction du vent: 13.07.2018 19:00:00 - 19.07.2018 19:00:00 (CEST)Noervenich/Flugplatz, Allemagne (10502): reduced air pressure: 13.07.2018 19:00:00 - 19.07.2018 19:00:00 (CEST)Noervenich/Flugplatz, Allemagne (10502): visibility: 13.07.2018 19:00:00 - 19.07.2018 19:00:00 (CEST)
Date & Time tt [°C] td [°C] ff [km/h] ff [knt] fx [km/h] fx [knt] dd ppp [hPa] vv [km]
19.07.2018 19:00:00 26,9 8,6 4 2 - - N 1015,4 30
19.07.2018 18:00:00 27,4 8,6 4 2 - - WSW 1015,6 30
19.07.2018 17:00:00 27,7 8,6 11 6 - - E 1016,1 30
19.07.2018 16:00:00 27,9 8,9 11 6 - - E 1016,5 30
19.07.2018 15:00:00 26,6 9,5 11 6 - - ENE 1016,9 30
19.07.2018 14:00:00 26,2 9,2 11 6 - - E 1017,3 30
19.07.2018 13:00:00 25,6 10,7 11 6 - - NE 1017,7 30
19.07.2018 12:00:00 24,7 9,8 11 6 - - ESE 1018,1 30
19.07.2018 11:00:00 23,0 11,3 7 4 - - N 1018,5 30
19.07.2018 10:00:00 20,9 11,6 7 4 - - E 1018,8 20
19.07.2018 09:00:00 19,1 11,1 4 2 - - N 1018,7 20
19.07.2018 08:00:00 16,0 10,6 4 2 - - N 1018,9 20
19.07.2018 07:00:00 13,0 10,1 4 2 - - N 1018,9 30
19.07.2018 06:00:00 12,4 9,4 4 2 - - N 1018,9 40
19.07.2018 05:00:00 12,9 10,1 0 0 - - N 1018,7 40
19.07.2018 04:00:00 13,5 10,3 4 2 - - WSW 1018,9 40
19.07.2018 03:00:00 15,3 10,3 4 2 - - N 1018,8 40
19.07.2018 02:00:00 14,2 10,5 7 4 - - W 1018,7 40
19.07.2018 01:00:00 15,7 10,3 4 2 - - W 1018,4 40
19.07.2018 00:00:00 17,4 10,1 4 2 - - W 1018,1 40
18.07.2018 23:00:00 18,8 10,1 4 2 - - W 1017,7 40
18.07.2018 22:00:00 20,1 10,6 4 2 - - W 1017,5 40
18.07.2018 21:00:00 24,0 10,8 4 2 - - NE 1017,0 40
18.07.2018 20:00:00 25,3 8,9 7 4 - - W 1016,9 40
18.07.2018 19:00:00 26,1 8,3 14 8 - - WNW 1016,9 40
18.07.2018 18:00:00 26,0 8,0 11 6 - - WNW 1017,1 40
18.07.2018 17:00:00 25,5 7,9 14 8 - - W 1017,5 40
18.07.2018 16:00:00 26,0 8,2 11 6 - - N 1017,6 40
18.07.2018 15:00:00 25,1 8,5 7 4 - - NNW 1017,9 40
18.07.2018 14:00:00 24,0 8,9 11 6 - - NNE 1018,2 40
18.07.2018 13:00:00 23,5 8,8 7 4 - - NW 1018,6 40
18.07.2018 12:00:00 21,9 9,4 7 4 - - ENE 1019,0 40
18.07.2018 11:00:00 21,1 10,3 7 4 - - E 1019,2 30
18.07.2018 10:00:00 19,3 11,7 7 4 - - ESE 1019,5 25
18.07.2018 09:00:00 18,3 12,0 4 2 - - N 1019,4 25
18.07.2018 08:00:00 15,7 11,2 4 2 - - SSE 1019,3 25
18.07.2018 07:00:00 12,7 10,4 4 2 - - N 1019,3 30
18.07.2018 06:00:00 11,7 10,5 4 2 - - W 1019,1 30
18.07.2018 05:00:00 11,8 10,5 7 4 - - W 1019,1 30
18.07.2018 04:00:00 12,3 10,8 7 4 - - WSW 1018,9 30
18.07.2018 03:00:00 13,2 11,5 4 2 - - N 1018,9 30
18.07.2018 02:00:00 14,6 11,7 7 4 - - W 1018,8 30
18.07.2018 01:00:00 17,2 10,4 7 4 - - WNW 1018,5 30
18.07.2018 00:00:00 18,6 10,7 7 4 - - NW 1018,3 30
17.07.2018 23:00:00 19,2 12,0 11 6 - - NNW 1017,8 30
17.07.2018 22:00:00 20,5 14,8 11 6 - - NW 1016,8 30
17.07.2018 21:00:00 19,6 16,6 11 6 - - SSW 1016,0 30
17.07.2018 20:00:00 20,1 16,6 11 6 - - SW 1015,4 30
17.07.2018 19:00:00 21,9 13,4 36 19 54 29 WSW 1015,3 15
17.07.2018 18:00:00 25,4 14,1 14 8 - - WNW 1014,4 30
17.07.2018 17:00:00 27,8 11,0 18 10 - - WNW 1014,4 30
17.07.2018 16:00:00 27,3 10,5 22 12 - - WNW 1014,4 30
17.07.2018 15:00:00 27,2 10,7 18 10 - - NW 1014,6 30
17.07.2018 14:00:00 27,7 11,1 22 12 - - W 1014,4 30
17.07.2018 13:00:00 26,3 10,5 22 12 - - WNW 1014,9 30
17.07.2018 12:00:00 26,5 11,9 18 10 - - WNW 1014,8 30
17.07.2018 11:00:00 23,7 11,1 22 12 - - WNW 1014,8 30
17.07.2018 10:00:00 22,7 11,4 14 8 - - WNW 1014,8 35
17.07.2018 09:00:00 21,4 12,6 22 12 - - WNW 1014,5 40
17.07.2018 08:00:00 20,2 12,9 7 4 - - WNW 1014,2 40
17.07.2018 07:00:00 17,8 11,6 7 4 - - W 1013,8 50
17.07.2018 06:00:00 17,5 11,9 11 6 - - WNW 1013,6 50
17.07.2018 05:00:00 16,8 11,8 11 6 - - W 1013,4 50
17.07.2018 04:00:00 19,3 11,4 11 6 - - W 1012,9 50
17.07.2018 03:00:00 19,4 10,9 7 4 - - W 1013,1 50
17.07.2018 02:00:00 19,4 9,9 14 8 - - W 1013,2 50
17.07.2018 01:00:00 20,0 8,0 18 10 - - W 1013,2 50
17.07.2018 00:00:00 20,0 7,7 7 4 - - W 1012,9 50
16.07.2018 23:00:00 22,4 7,0 7 4 - - WNW 1012,6 50
16.07.2018 22:00:00 22,8 7,4 7 4 - - WNW 1012,0 50
16.07.2018 21:00:00 26,8 6,1 7 4 - - NNW 1011,3 50
16.07.2018 20:00:00 28,6 4,8 7 4 - - NNW 1010,8 50
16.07.2018 19:00:00 28,8 4,7 14 8 - - N 1010,8 50
16.07.2018 18:00:00 28,9 4,7 7 4 - - NNW 1010,9 50
16.07.2018 17:00:00 29,2 4,7 14 8 - - NNW 1011,1 50
16.07.2018 16:00:00 29,3 4,8 14 8 - - NNW 1011,3 50
16.07.2018 15:00:00 28,9 6,2 14 8 - - NNW 1011,9 50
16.07.2018 14:00:00 28,0 6,0 11 6 - - N 1012,5 50
16.07.2018 13:00:00 26,9 9,9 11 6 - - W 1012,8 50
16.07.2018 12:00:00 25,7 9,9 7 4 - - NE 1013,2 50
16.07.2018 11:00:00 23,8 10,7 7 4 - - NNE 1013,4 50
16.07.2018 10:00:00 21,9 9,8 4 2 - - NNE 1013,7 50
16.07.2018 09:00:00 19,4 10,3 4 2 - - ENE 1014,0 50
16.07.2018 08:00:00 16,8 9,3 4 2 - - WNW 1014,1 50
16.07.2018 07:00:00 13,8 8,7 4 2 - - WNW 1014,4 50
16.07.2018 06:00:00 12,7 8,6 0 0 - - N 1014,5 50
16.07.2018 05:00:00 13,5 8,7 4 2 - - WSW 1014,4 40
16.07.2018 04:00:00 15,0 8,9 7 4 - - WSW 1014,6 40
16.07.2018 03:00:00 16,5 8,8 7 4 - - W 1014,7 40
16.07.2018 02:00:00 17,5 8,5 4 2 - - NE 1015,0 40
16.07.2018 01:00:00 19,3 8,1 4 2 - - NE 1014,9 40
16.07.2018 00:00:00 19,4 7,7 4 2 - - N 1014,9 45
15.07.2018 23:00:00 19,9 8,4 4 2 - - NNE 1014,9 45
15.07.2018 22:00:00 21,6 7,6 7 4 - - NNE 1014,3 45
15.07.2018 21:00:00 25,2 7,5 14 8 - - NE 1013,7 45
15.07.2018 20:00:00 26,5 7,3 18 10 - - NE 1013,6 45
15.07.2018 19:00:00 27,7 6,6 14 8 - - NE 1013,6 45
15.07.2018 18:00:00 27,9 6,3 14 8 - - NE 1013,8 45
15.07.2018 17:00:00 28,1 6,9 14 8 - - N 1014,1 45
15.07.2018 16:00:00 27,6 7,8 14 8 - - NE 1014,5 45
15.07.2018 15:00:00 27,9 8,8 14 8 - - NE 1014,9 45
15.07.2018 14:00:00 26,8 8,9 11 6 - - E 1015,9 45
15.07.2018 13:00:00 26,0 10,1 11 6 - - E 1016,5 13
15.07.2018 12:00:00 24,6 10,8 11 6 - - ENE 1016,9 10
15.07.2018 11:00:00 23,1 11,7 11 6 - - NE 1017,2 12
15.07.2018 10:00:00 21,4 12,5 4 2 - - W 1017,5 10
15.07.2018 09:00:00 19,6 12,0 4 2 - - N 1017,7 11
15.07.2018 08:00:00 16,9 11,0 4 2 - - N 1017,6 13
15.07.2018 07:00:00 13,8 10,4 4 2 - - SW 1017,7 10
15.07.2018 06:00:00 12,9 10,2 0 0 - - N 1017,9 10
15.07.2018 05:00:00 14,1 10,4 7 4 - - W 1018,0 11
15.07.2018 04:00:00 14,6 10,3 4 2 - - W 1018,1 13
15.07.2018 03:00:00 15,5 10,4 7 4 - - W 1018,3 14
15.07.2018 02:00:00 16,3 10,3 4 2 - - WNW 1018,4 18
15.07.2018 01:00:00 17,1 10,2 4 2 - - NW 1018,4 15
15.07.2018 00:00:00 18,3 10,1 4 2 - - N 1018,3 15
14.07.2018 23:00:00 20,6 9,9 7 4 - - NNW 1018,2 17
14.07.2018 22:00:00 21,9 9,5 7 4 - - N 1017,8 30
14.07.2018 21:00:00 24,2 9,5 14 8 - - NNE 1017,3 30
14.07.2018 20:00:00 25,7 9,4 14 8 - - N 1017,1 30
14.07.2018 19:00:00 26,5 10,2 11 6 - - NNE 1017,2 30
14.07.2018 18:00:00 26,6 10,5 14 8 - - N 1017,5 30
14.07.2018 17:00:00 26,8 11,3 14 8 - - N 1017,5 25
14.07.2018 16:00:00 27,0 12,1 14 8 - - N 1018,0 25
14.07.2018 15:00:00 26,4 12,0 14 8 - - NNW 1018,4 25
14.07.2018 14:00:00 25,9 12,6 7 4 - - N 1018,9 20
14.07.2018 13:00:00 24,3 12,7 11 6 - - NNE 1019,5 11
14.07.2018 12:00:00 23,7 13,8 11 6 - - N 1020,0 9
14.07.2018 11:00:00 22,2 13,7 14 8 - - NNW 1020,3 11
14.07.2018 10:00:00 20,4 13,7 7 4 - - NW 1020,5 11
14.07.2018 09:00:00 18,3 13,4 7 4 - - WNW 1020,5 13
14.07.2018 08:00:00 16,8 13,3 7 4 - - WNW 1020,3 13
14.07.2018 07:00:00 15,0 12,4 11 6 - - W 1020,3 10
14.07.2018 06:00:00 14,7 12,2 11 6 - - W 1020,1 10
14.07.2018 05:00:00 15,3 12,2 11 6 - - W 1020,1 11
14.07.2018 04:00:00 15,9 12,1 11 6 - - W 1019,8 11
14.07.2018 03:00:00 16,7 11,8 11 6 - - W 1019,9 14
14.07.2018 02:00:00 17,7 11,9 7 4 - - W 1019,8 15
14.07.2018 01:00:00 19,3 11,6 7 4 - - NW 1019,8 16
14.07.2018 00:00:00 20,2 11,1 7 4 - - NW 1019,7 22
13.07.2018 23:00:00 19,6 10,7 7 4 - - W 1019,6 16
13.07.2018 22:00:00 21,4 10,8 7 4 - - NNW 1019,2 30
13.07.2018 21:00:00 24,2 10,2 7 4 - - N 1018,7 30
13.07.2018 20:00:00 25,2 9,9 11 6 - - N 1018,5 30
13.07.2018 19:00:00 26,2 9,6 11 6 - - NNW 1018,8 30

tt = Température de l'air
td = dewpoint
ff = Vitesse du vent
fx = gusts
dd = Direction du vent
ppp = reduced air pressure
vv = visibility

stations d'obs. à proximité